Overview Statistics Trail Chart Weather Telemetry Raw packets
 

This is the latest recevied weather packets stored in our database for station/object AA7VG. If no packets are shown the sender has not sent any weather packets the latest 10 day(s).

<< 22 23 24 25 26 27 28 >>
Time Temp. Humidity Pressure Rain* Wind** Luminosity Snow
1788461842 23.89° C 25% 1010.2 hPa 0 mm - - -
1788461542 23.33° C 25% 1010.3 hPa 0 mm - - -
1788461239 23.33° C 26% 1010.6 hPa 0 mm - - -
1788460935 23.89° C 27% 1010.6 hPa 0 mm - - -
1788460634 23.33° C 26% 1010.6 hPa 0 mm - - -
1788460329 23.89° C 25% 1010.9 hPa 0 mm - - -
1788460028 25° C 24% 1010.7 hPa 0 mm - - -
1788459723 25.56° C 23% 1010.9 hPa 0 mm - - -
1788459421 25.56° C 24% 1010.6 hPa 0 mm - - -
1788459116 25.56° C 23% 1010.6 hPa 0 mm - - -
1788458812 25° C 24% 1011 hPa 0 mm - - -
1788458506 23.33° C 25% 1010.9 hPa 0 mm - - -
1788458205 23.89° C 25% 1011.1 hPa 0 mm - - -
1788457904 23.89° C 25% 1010.9 hPa 0 mm - - -
1788457599 22.78° C 26% 1011.2 hPa 0 mm - - -
1788457294 22.22° C 26% 1011.1 hPa 0 mm - - -
1788456989 21.67° C 26% 1011.2 hPa 0 mm - - -
1788456686 22.22° C 27% 1011.4 hPa 0 mm - - -
1788456406 21.67° C 25% 1011.3 hPa 0 mm - - -
1788456081 21.67° C 27% 1011.4 hPa 0 mm - - -
1788455780 21.67° C 27% 1011.5 hPa 0 mm - - -
1788455477 20.56° C 28% 1011.2 hPa 0 mm - - -
1788455175 21.11° C 27% 1011.2 hPa 0 mm - - -
1788454871 21.11° C 27% 1011.3 hPa 0 mm - - -
1788454568 21.11° C 27% 1011.2 hPa 0 mm - - -

* Rain latest hour (hover to see other rain measurements)
** Current wind speed in m/s (hover to see current wind gust speed)